Portada
METAR-TAF:

METAR-TAF

Aeroports :

Gachsaran, Iran

latitud: 30-26N, longitud: 050-46E, altitud: 738 m

Observació

L'informe es va fer fa 26 minuts, a les 00:00 UTC
Vent calma
Temperatura 19°C
Humitat 73%
Pressió 1013 hPa
Visibilitat: 8000 m

METAR: OIAH 180000Z 00000KT 8000 NSC 19/14 Q1013

Hora: 04:56 (00:26 UTC)


TAF: manca

Observacions i pronòstics meteorològics de més de 4000 aeroports (METAR i TAF).

Les estacions disponibles són els punts grocs i vermells al mapa.

Posi el ratolí al punt desitjat per veure el nom de l'estació.

Feu clic per veure les observacions i els pronòstics meteorològics.

Per canviar el mapa: feu clic els botons verds amb una creu de color negre per apropar; al botó verd amb un guió per allunyar la imatge; o en les fletxes verdes per a mapes adjacents.


METAR-TAF: